Weather History for Lihue, HI

Change the Weather History Date:

Tuesday, December 20, 2011

  Actual Average Record
Temperature  
Mean Temperature 73 °F 73 °F  
Max Temperature 77 °F 79 °F 85 °F (2002)
Min Temperature 69 °F 67 °F 57 °F (1983)
Degree Days  
Heating Degree Days 0 0  
Month to date heating degree days 0 0  
Since 1 July heating degree days 0 0  
Cooling Degree Days 8 8  
Month to date cooling degree days 146 171  
Year to date cooling degree days 4034 3862  
Growing Degree Days 23 (Base 50)    
Moisture  
Dew Point 65 °F    
Average Humidity 77    
Maximum Humidity 84    
Minimum Humidity 69    
Precipitation  
Precipitation 0.16 in 0.18 in 0.67 in (1999)
Month to date precipitation 1.32 3.36  
Year to date precipitation 40.86 35.21  
Snow  
Snow 0.00 in - - ()
Month to date snowfall 0.0  
Since 1 July snowfall 0.0  
Snow Depth 0.00 in    
Sea Level Pressure  
Sea Level Pressure 30.07 in    
Wind  
Wind Speed 22 mph (NE)    
Max Wind Speed 31 mph    
Max Gust Speed 37 mph    
Visibility 9 miles    
Events Rain    
T = Trace of Precipitation, MM = Missing Value Source: NWS Daily Summary

Daily Weather History Graph

Daily Weather History Graph

Search for Another Location

Airport:

Trip Planner

Search our weather history database for the weather conditions in past years. The results will help you decide how hot, cold, wet, or windy it might be!

Date:

Astronomy

Dec. 20, 2011 Rise Set
Actual Time 7:11 AM HST 5:58 PM HST
Civil Twilight 6:46 AM HST 6:23 PM HST
Nautical Twilight 6:18 AM HST 6:51 PM HST
Astronomical Twilight 5:51 AM HST 7:18 PM HST
Moon 3:00 AM HST 2:31 PM HST
Length of Visible Light 11h 36m
Length of Day
10h 47m
Waning Crescent, 19% of the Moon is Illuminated
Dec 20
Waning Crescent
Dec 24
New
Dec 31
First Quarter
Jan 8
Full
Jan 15
Last Quarter

Hourly Weather History & Observations

Time (HST) Temp. Dew Point Humidity Pressure Visibility Wind Dir Wind Speed Gust Speed Precip Events Conditions
12:53 AM 72.0 °F 64.0 °F 76% 30.10 in 10.0 mi NE 18.4 mph - 0.01 in   Partly Cloudy
1:53 AM 73.0 °F 64.0 °F 73% 30.08 in 10.0 mi NE 20.7 mph 27.6 mph N/A   Mostly Cloudy
2:53 AM 73.0 °F 64.0 °F 73% 30.05 in 10.0 mi NE 16.1 mph 24.2 mph N/A   Partly Cloudy
3:16 AM 73.4 °F 64.4 °F 73% 30.05 in 10.0 mi ENE 16.1 mph - N/A   Mostly Cloudy
3:43 AM 73.4 °F 64.4 °F 73% 30.03 in 10.0 mi NE 19.6 mph 25.3 mph N/A   Scattered Clouds
3:53 AM 72.0 °F 64.0 °F 76% 30.03 in 10.0 mi NE 17.3 mph - N/A   Partly Cloudy
4:53 AM 73.0 °F 64.0 °F 73% 30.04 in 10.0 mi NE 16.1 mph - N/A   Mostly Cloudy
5:53 AM 72.0 °F 66.0 °F 81% 30.07 in 10.0 mi NE 19.6 mph 24.2 mph 0.00 in   Mostly Cloudy
6:53 AM 72.0 °F 64.9 °F 78% 30.10 in 9.0 mi NNE 21.9 mph 26.5 mph N/A   Mostly Cloudy
7:08 AM 71.6 °F 64.4 °F 78% 30.11 in 10.0 mi NNE 17.3 mph 25.3 mph N/A   Mostly Cloudy
7:17 AM 69.8 °F 64.4 °F 83% 30.12 in 1.8 mi NE 16.1 mph 26.5 mph 0.03 in Rain Heavy Rain
7:19 AM 69.8 °F 66.2 °F 88% 30.11 in 6.0 mi NNE 18.4 mph 26.5 mph 0.09 in Rain Heavy Rain
7:29 AM 69.8 °F 66.2 °F 88% 30.11 in 7.0 mi NNE 16.1 mph - 0.13 in Rain Light Rain
7:53 AM 72.0 °F 66.9 °F 84% 30.11 in 7.0 mi NNE 15.0 mph 26.5 mph 0.13 in Rain Light Rain
7:57 AM 71.6 °F 66.2 °F 83% 30.12 in 6.0 mi NE 19.6 mph 26.5 mph 0.00 in Rain Light Rain
8:53 AM 73.0 °F 66.0 °F 79% 30.11 in 10.0 mi NE 21.9 mph - 0.00 in   Mostly Cloudy
9:00 AM 71.6 °F 64.4 °F 78% 30.12 in 10.0 mi NE 20.7 mph 32.2 mph N/A   Mostly Cloudy
9:53 AM 75.0 °F 64.9 °F 71% 30.11 in 10.0 mi NE 23.0 mph - N/A   Scattered Clouds
10:53 AM 75.9 °F 66.9 °F 74% 30.10 in 10.0 mi NE 20.7 mph - N/A   Mostly Cloudy
11:51 AM 75.2 °F 66.2 °F 73% 30.09 in 10.0 mi NE 20.7 mph - N/A   Overcast
11:53 AM 75.0 °F 66.0 °F 73% 30.09 in 10.0 mi NE 21.9 mph - N/A   Mostly Cloudy
12:11 PM 75.2 °F 66.2 °F 73% 30.08 in 10.0 mi NE 20.7 mph 26.5 mph N/A   Mostly Cloudy
12:39 PM 77.0 °F 68.0 °F 74% 30.06 in 10.0 mi NE 20.7 mph 27.6 mph 0.00 in   Mostly Cloudy
12:48 PM 75.2 °F 66.2 °F 73% 30.06 in 10.0 mi NE 21.9 mph - 0.00 in   Mostly Cloudy
12:53 PM 75.9 °F 66.9 °F 74% 30.06 in 10.0 mi NNE 23.0 mph 31.1 mph 0.00 in   Mostly Cloudy
1:06 PM 77.0 °F 66.2 °F 69% 30.05 in 10.0 mi NE 21.9 mph - 0.00 in   Scattered Clouds
1:17 PM 77.0 °F 66.2 °F 69% 30.05 in 10.0 mi NE 23.0 mph 28.8 mph 0.00 in   Mostly Cloudy
1:29 PM 77.0 °F 64.4 °F 65% 30.04 in 10.0 mi NE 21.9 mph - 0.00 in   Mostly Cloudy
1:53 PM 73.0 °F 68.0 °F 84% 30.04 in 10.0 mi NE 23.0 mph 29.9 mph 0.02 in Rain Light Rain
2:53 PM 73.0 °F 66.9 °F 81% 30.03 in 10.0 mi NE 21.9 mph - 0.00 in   Overcast
3:53 PM 73.9 °F 66.0 °F 76% 30.04 in 9.0 mi NE 27.6 mph 36.8 mph 0.00 in   Mostly Cloudy
4:53 PM 73.9 °F 64.9 °F 73% 30.04 in 10.0 mi NE 26.5 mph 31.1 mph 0.00 in   Mostly Cloudy
5:35 PM 73.4 °F 64.4 °F 73% 30.05 in 8.0 mi NNE 24.2 mph 32.2 mph N/A   Mostly Cloudy
5:53 PM 73.0 °F 64.9 °F 76% 30.04 in 9.0 mi NE 21.9 mph 31.1 mph N/A   Overcast
6:04 PM 73.4 °F 64.4 °F 73% 30.05 in 8.0 mi NNE 23.0 mph 28.8 mph N/A   Overcast
6:16 PM 73.4 °F 64.4 °F 73% 30.05 in 9.0 mi NE 25.3 mph 32.2 mph N/A   Overcast
6:53 PM 73.0 °F 64.9 °F 76% 30.05 in 10.0 mi NE 23.0 mph 29.9 mph N/A   Mostly Cloudy
7:31 PM 73.4 °F 66.2 °F 78% 30.06 in 10.0 mi NE 23.0 mph - N/A   Overcast
7:48 PM 73.4 °F 64.4 °F 73% 30.07 in 10.0 mi NE 21.9 mph 31.1 mph N/A   Mostly Cloudy
7:53 PM 73.0 °F 66.0 °F 79% 30.06 in 10.0 mi NE 21.9 mph 29.9 mph N/A   Mostly Cloudy
8:53 PM 73.0 °F 66.0 °F 79% 30.07 in 10.0 mi NE 21.9 mph 32.2 mph N/A   Overcast
9:53 PM 73.0 °F 64.9 °F 76% 30.08 in 10.0 mi NE 24.2 mph 31.1 mph N/A   Mostly Cloudy
10:12 PM 73.4 °F 64.4 °F 73% 30.08 in 10.0 mi NE 23.0 mph 29.9 mph N/A   Mostly Cloudy
10:19 PM 73.4 °F 64.4 °F 73% 30.08 in 10.0 mi NE 21.9 mph 29.9 mph N/A   Mostly Cloudy
10:53 PM 73.0 °F 64.0 °F 73% 30.07 in 10.0 mi NE 21.9 mph - N/A   Scattered Clouds
11:24 PM 73.4 °F 64.4 °F 73% 30.08 in 10.0 mi NE 18.4 mph - N/A   Overcast
11:32 PM 73.4 °F 64.4 °F 73% 30.07 in 10.0 mi NE 24.2 mph 28.8 mph N/A   Overcast
11:53 PM 73.0 °F 64.9 °F 76% 30.06 in 10.0 mi NE 21.9 mph 27.6 mph N/A   Mostly Cloudy